Regional Weather Roundup
Issued by NWS

Current Version | Previous Version | Text Only | Print | Product List | Glossary On
Versions: 1 2 3 4 5 6 7 8 9 10 11 12 13 14 15 16 17 18 19 20 21 22 23 24 25 26 27 28 29 30 31 32 33 34 35 36 37 38 39 40 41 42 43 44 45 46 47 48 49 50
000
ASUS44 KJAN 241810
RWRMS

MISSISSIPPI HOURLY WEATHER ROUNDUP
NATIONAL WEATHER SERVICE JACKSON MS
100 PM CDT FRI OCT 24 2014

NOTE: "FAIR: INDICATES FEW OR NO CLOUDS BELOW 12,000 FEET WITH NO
SIGNIFICANT WEATHER AND/OR OBSTRUCTIONS TO VISIBILITY.

MSZ001>002-007>008-010>013-018>021-025>028-034>036-241900-
NORTHWEST MISSISSIPPI

CITY           SKY/WX    TMP DP  RH WIND       PRES   REMARKS
CLARKSDALE     FAIR      68  48  49 NW6       30.15F
CLEVELAND      FAIR      69  46  43 N6        30.13F
GREENWOOD      SUNNY     70  44  39 NW5       30.12F
6HR MIN TEMP:  42; 6HR MAX TEMP:  71;

GREENVILLE     SUNNY     70  44  39 MISG      30.13F
6HR MIN TEMP:  45; 6HR MAX TEMP:  70;

GRENADA          N/A    N/A N/A N/A MISG        N/A
OLIVE BRANCH   MOSUNNY   66  50  55 CALM      30.13F
OXFORD         FAIR      66  45  45 N6        30.15S
TUNICA         CLEAR     68  46  45 CALM      30.14F
$$

MSZ003>006-009-014>017-022>024-029>033-037>039-241900-
NORTHEAST MISSISSIPPI

CITY           SKY/WX    TMP DP  RH WIND       PRES   REMARKS
COLUMBUS AFB   SUNNY     69  46  42 NW8       30.10F
6HR MIN TEMP:  47; 6HR MAX TEMP:  69;

CORINTH        FAIR      68  41  37 NE5       30.11F
GOLDN TRIANGLE SUNNY     72  46  40 N5        30.10F
STARKVILLE     FAIR      68  45  42 NW7       30.10F
TUPELO         SUNNY     69  44  40 VRB6      30.11F
6HR MIN TEMP:  49; 6HR MAX TEMP:  70;

$$

MSZ040-058-241900-
CENTRAL MISSISSIPPI

CITY           SKY/WX    TMP DP  RH WIND       PRES   REMARKS
JACKSON INTL   SUNNY     72  44  36 NW8       30.11F
6HR MIN TEMP:  43; 6HR MAX TEMP:  72;

JACKSON HAWKNS SUNNY     71  42  35 CALM      30.12F
6HR MIN TEMP:  44; 6HR MAX TEMP:  71;

MERIDIAN KEY   SUNNY     71  46  40 CALM      30.08F
6HR MIN TEMP:  44; 6HR MAX TEMP:  72;

MERIDIAN NAS   SUNNY     72  43  35 VRB3      30.08F
6HR MIN TEMP:  47; 6HR MAX TEMP:  72;

RAYMOND        FAIR      70  64  83 NW10      30.12F
VICKSBURG      SUNNY     71  44  37 VRB6      30.14F
6HR MIN TEMP:  37; 6HR MAX TEMP:  71;

$$

MSZ059>079-241900-
SOUTH MISSISSIPPI

CITY           SKY/WX    TMP DP  RH WIND       PRES   REMARKS
BROOKHAVEN     FAIR      70  48  46 N7        30.13F
COLUMBIA         N/A    N/A N/A N/A MISG        N/A
HATTIESBURG    SUNNY     72  49  44 MISG      30.09F
6HR MIN TEMP:  45; 6HR MAX TEMP:  72;

MCCOMB         SUNNY     71  43  36 N9        30.11F
6HR MIN TEMP:  48; 6HR MAX TEMP:  71;

NATCHEZ        SUNNY     68  45  42 N8        30.14F
6HR MIN TEMP:  45; 6HR MAX TEMP:  68;

PINE BELT      SUNNY     73  43  33 N7        30.11F
6HR MIN TEMP:  45; 6HR MAX TEMP:  73;

$$

MSZ080>082-241900-
COASTAL MISSISSIPPI

CITY           SKY/WX    TMP DP  RH WIND       PRES   REMARKS
BAY ST LOUIS   SUNNY     73  39  29 N7        30.07F
BILOXI         SUNNY     75  43  32 N7        30.05F
6HR MIN TEMP:  52; 6HR MAX TEMP:  75;

PASCAGOULA     SUNNY     74  47  38 VRB6      30.05F
6HR MIN TEMP:  43; 6HR MAX TEMP:  74;

GULFPORT       SUNNY     74  43  32 NE8       30.06F
6HR MIN TEMP:  51; 6HR MAX TEMP:  75;

$$



USA.gov is the U.S. government's official web portal to all federal, state and local government web resources and services.